CAPE
0 0 0 0 0 2 16 49 117 226 249 388 627 444 366 295 490 276 489 587 642 836 916 594 609 411 466 708 730 666 611 501 457 301 254 121 13 0 0 0 0 0 0
0 0 0 0 0 1 13 11 166 238 457 611 732 602 342 443 408 344 307 261 305 581 871 854 753 597 602 493 663 628 699 571 329 164 147 71 9 0 0 0 0 0 0
0 0 0 0 0 0 5 0 122 307 542 483 787 488 480 429 283 292 155 117 208 707 566 850 756 1040 806 595 495 675 667 455 205 114 62 6 0 0 0 0 0 1 2
0 0 0 0 0 6 9 93 335 446 523 593 657 496 462 414 150 148 187 163 131 428 825 905 952 773 959 746 756 676 444 332 122 25 0 0 0 0 0 0 1 1 1
32 0 0 37 59 103 164 192 319 324 520 620 515 516 326 219 87 90 125 89 73 105 252 755 565 760 1020 1076 714 454 312 130 34 0 0 0 0 0 0 0 0 0 0
12 73 26 126 130 139 204 180 377 422 571 585 567 398 179 85 42 48 68 44 80 160 149 193 268 379 587 799 768 398 208 48 0 0 0 0 0 0 0 0 0 0 0
1 125 142 87 258 162 269 248 392 497 523 517 360 247 149 57 42 43 39 50 106 139 103 138 208 127 229 347 501 374 169 56 0 0 0 0 0 0 0 0 0 0 0
62 81 174 181 193 231 283 337 315 332 420 315 185 67 72 20 24 22 28 18 52 59 58 49 88 190 332 276 439 381 198 45 0 0 0 0 0 0 0 0 0 0 0
16 30 60 110 141 195 192 180 220 328 273 183 92 23 17 26 0 4 1 1 1 6 6 23 38 99 69 338 355 455 270 9 0 0 0 0 0 0 0 0 0 0 0
37 17 8 26 53 52 50 60 53 94 121 9 2 36 41 19 0 0 0 1 1 1 1 1 19 9 52 110 218 250 132 136 0 0 0 0 0 0 0 0 0 0 0
52 54 31 28 48 21 33 57 5 15 50 2 6 0 4 0 0 0 0 0 0 0 1 2 0 0 0 0 61 173 33 20 0 0 0 0 0 0 0 0 0 0 0
37 80 41 42 38 10 27 5 0 1 0 1 1 0 0 0 0 0 0 0 0 0 0 0 0 0 0 0 2 2 0 0 0 0 0 0 0 0 0 0 0 0 0
26 29 38 37 19 18 23 20 1 1 0 1 0 0 0 0 0 0 0 0 0 0 0 0 0 0 0 0 0 0 0 0 0 0 0 0 0 0 0 0 0 0 0
5 11 23 3 1 38 23 30 23 15 2 0 0 0 0 0 0 0 0 0 0 0 0 0 0 0 0 0 0 0 0 0 0 0 0 0 0 0 0 0 0 0 0
0 0 0 0 0 8 31 12 16 2 6 0 0 0 0 0 0 0 0 0 0 0 0 0 0 0 0 0 0 0 0 0 0 0 0 0 0 0 0 0 0 0 0
0 0 0 0 0 0 0 0 0 0 0 0 0 0 0 0 0 0 0 0 0 0 0 0 0 0 0 0 0 0 0 0 0 0 0 0 0 0 0 0 0 0 0
0 0 0 0 0 0 0 0 0 0 0 0 0 0 0 0 0 0 0 0 0 0 0 0 0 0 0 0 0 0 0 0 0 0 0 0 0 0 0 0 0 0 0
0 0 0 0 0 0 0 0 0 0 0 0 0 0 0 0 0 0 0 0 0 0 0 0 0 0 0 0 0 0 0 0 0 0 0 0 0 0 0 0 0 0 0
0 0 0 0 0 0 0 0 0 0 0 0 0 0 0 0 0 0 0 0 0 0 0 0 0 0 0 0 0 0 0 0 0 0 0 0 0 0 0 0 0 0 0
0 0 0 0 0 0 0 0 0 0 0 0 0 0 0 0 0 0 0 0 0 0 0 0 0 0 0 0 0 0 0 0 0 0 0 0 0 0 0 0 0 0 0
0 0 0 0 0 0 0 0 0 0 0 0 0 0 0 0 0 0 0 0 0 0 0 0 0 0 0 0 0 0 0 0 0 0 0 0 0 0 0 0 0 0 0
0 0 0 0 0 0 0 0 0 0 0 0 0 0 0 0 0 0 0 0 0 0 0 0 0 0 0 0 0 0 0 0 0 0 0 0 0 0 0 0 0 0 0
0 0 0 0 0 0 0 0 0 0 0 0 0 0 0 0 0 0 0 0 0 0 0 0 0 0 0 0 0 0 0 0 0 0 0 0 0 0 0 0 0 0 0
0 0 0 0 0 0 0 0 0 0 0 0 0 0 0 0 0 0 0 0 0 0 0 0 0 0 0 0 0 0 0 0 0 0 0 0 0 0 0 0 0 0 0
0 0 0 0 0 0 0 0 0 0 0 0 0 0 0 0 0 0 0 0 0 0 0 0 0 0 0 0 0 0 0 0 0 0 0 0 0 0 0 0 0 0 0
0 0 0 0 0 0 0 0 0 0 0 0 0 0 0 0 0 0 0 0 0 0 0 0 0 0 0 0 0 0 0 0 0 0 0 0 0 0 0 0 0 0 0
CIN
0 0 0 0 0 -45 -91 -72 -74 -34 -35 -21 -3 -14 -18 -39 -13 -21 -9 -2 -3 -1 0 -10 0 -2 0 0 0 0 -3 -22 -15 -2 0 -25 -95 0 0 0 0 0 0
0 0 0 0 0 -51 -115 -92 -52 -37 -20 -5 0 -3 -28 -19 -23 -30 -19 -10 -4 -5 -1 0 0 0 -2 -1 0 0 0 -9 0 -29 -18 -63 -96 0 0 0 0 0 0
0 0 0 0 0 0 -111 0 -56 -36 -13 -6 0 -5 -15 -21 -33 -29 -28 -21 -17 -1 -7 0 0 0 0 0 -1 0 0 -2 -10 -73 -76 -132 0 0 0 0 0 0 0
0 0 0 0 0 -130 -55 -74 -27 -15 -8 -1 0 -23 -8 -16 -28 -46 -4 -18 -16 -10 -3 -1 0 -1 0 0 0 0 -5 -4 -56 -114 0 0 0 0 0 0 0 0 0
-123 0 0 -125 -109 -89 -69 -57 -16 -28 -2 0 -3 -12 -10 -9 -27 -83 -25 -24 -36 -29 -39 -3 -7 -5 -1 0 0 -11 -9 -58 -116 0 0 0 0 0 0 0 0 0 0
-115 -87 -124 -63 -53 -61 -44 -35 -9 -12 -4 0 0 -7 -23 -27 -37 -20 -7 -4 -15 -19 -33 -25 -28 -15 -11 -1 0 -1 -28 -99 0 0 0 0 0 0 0 0 0 0 0
-46 -11 -6 -22 0 -14 -19 -11 -11 -1 0 -2 -6 -11 -7 -11 -12 -25 -8 -10 -7 -13 -42 -75 -59 -80 -26 -19 0 -4 -32 -83 0 0 0 0 0 0 0 0 0 0 0
0 -3 0 -1 -1 0 -1 -3 -3 -2 -1 -17 -11 -37 -1 -7 -2 -35 -25 -40 -22 -32 -41 -98 -108 -68 -26 -21 -2 0 -11 -83 0 0 0 0 0 0 0 0 0 0 0
-2 -6 -3 -7 -8 -1 -4 -1 0 -2 -2 -4 -58 -24 -18 -3 0 0 0 0 -3 -71 -89 -132 -125 -73 -107 -7 -2 0 0 -88 0 0 0 0 0 0 0 0 0 0 0
-39 -35 -20 -25 -15 -11 -23 -9 -19 -4 -27 -25 -62 -123 -116 -89 -12 0 0 0 0 0 0 0 -145 -159 -118 -51 -9 -7 -14 -13 0 0 0 0 0 0 0 0 0 0 0
-63 -47 -38 -16 -10 -17 -27 -34 -46 -28 -65 -8 -119 -11 -53 0 0 -1 0 0 0 0 0 0 0 0 0 0 -58 -11 -34 -30 0 0 0 0 0 0 0 0 0 0 0
-104 -80 -72 -53 -15 -10 -8 -38 -4 -27 -36 -92 -108 -24 0 0 -1 0 0 0 0 0 0 0 0 0 0 0 -133 -57 0 0 0 0 0 0 0 0 0 0 0 0 0
-100 -104 -104 -84 -43 -11 -23 -48 -89 -54 0 -43 0 0 0 0 0 0 0 0 0 0 0 0 0 0 0 0 0 0 0 0 0 0 0 0 0 0 0 0 0 0 0
-156 -141 -161 -134 -104 -51 -54 -51 -67 -73 -60 0 0 0 0 0 0 0 0 0 0 0 0 0 0 0 0 0 0 0 0 0 0 0 0 0 0 0 0 0 0 0 0
-7 0 0 0 0 -145 -125 -113 -78 -90 -88 0 0 0 0 0 0 0 0 0 0 0 0 0 0 0 0 0 0 0 0 0 0 0 0 0 0 0 0 0 0 0 0
0 0 0 0 0 0 0 0 0 0 0 0 0 0 0 0 0 0 0 0 0 0 0 0 0 0 0 0 0 0 0 0 0 0 0 0 0 0 0 0 0 0 0
0 0 0 0 0 0 0 0 0 0 0 0 0 0 0 0 0 0 0 0 0 0 0 0 0 0 0 0 0 0 0 0 0 0 0 0 0 0 0 0 0 0 0
0 0 0 0 0 0 0 0 0 0 0 0 0 0 0 0 0 0 0 0 0 0 0 0 0 0 0 0 0 0 0 0 0 0 0 0 0 0 0 0 0 0 0
0 0 0 0 0 0 0 0 0 0 0 0 0 0 0 0 0 0 0 0 0 0 0 0 0 0 0 0 0 0 0 0 0 0 0 0 0 0 0 0 0 0 0
0 0 0 0 0 0 0 0 0 0 0 0 0 0 0 0 0 0 0 0 0 0 0 0 0 0 0 0 0 0 0 0 0 0 0 0 0 0 0 0 0 0 0
0 0 0 0 0 0 0 0 0 0 0 0 0 0 0 0 0 0 0 0 0 0 0 0 0 0 0 0 0 0 0 0 0 0 0 0 0 0 0 0 0 0 0
0 0 0 0 0 0 0 0 0 0 0 0 0 0 0 0 0 0 0 0 0 0 0 0 0 0 0 0 0 0 0 0 0 0 0 0 0 0 0 0 0 0 0
0 0 0 0 0 0 0 0 0 0 0 0 0 0 0 0 0 0 0 0 0 0 0 0 0 0 0 0 0 0 0 0 0 0 0 0 0 0 0 0 0 0 0
0 0 0 0 0 0 0 0 0 0 0 0 0 0 0 0 0 0 0 0 0 0 0 0 0 0 0 0 0 0 0 0 0 0 0 0 0 0 0 0 0 0 0
0 0 0 0 0 0 0 0 0 0 0 0 0 0 0 0 0 0 0 0 0 0 0 0 0 0 0 0 0 0 0 0 0 0 0 0 0 0 0 0 0 0 0
0 0 0 0 0 0 0 0 0 0 0 0 0 0 0 0 0 0 0 0 0 0 0 0 0 0 0 0 0 0 0 0 0 0 0 0 0 0 0 0 0 0 0
Wind_Speed
3 3 3 3 3 2 2 2 4 5 5 5 6 7 7 6 6 6 6 20 17 19 21 22 23 23 21 19 18 17 16 17 17 17 15 14 15 14 14 14 13 13 13
3 3 3 4 3 3 2 3 5 5 5 5 7 7 7 7 7 8 7 12 17 18 20 22 24 23 21 21 18 18 19 17 16 17 14 13 14 14 14 13 13 13 13
4 3 3 3 3 3 3 3 3 5 5 5 9 7 8 8 7 9 9 5 10 19 21 22 22 21 22 20 20 20 19 18 17 17 14 13 14 14 13 12 13 13 14
4 3 3 3 3 4 4 4 5 6 4 7 7 7 7 9 8 9 8 5 6 9 15 20 19 20 21 21 21 20 19 17 16 15 14 14 14 14 12 12 12 13 12
2 4 3 4 7 5 5 6 5 7 6 6 6 7 7 8 9 8 8 6 4 3 4 15 19 19 20 21 21 21 19 18 15 15 14 15 13 13 12 11 12 12 11
3 5 4 5 4 6 7 5 8 6 7 8 8 8 7 8 7 8 8 5 5 3 3 6 9 11 20 20 21 20 19 18 16 15 13 13 12 12 12 11 11 11 9
3 4 4 4 4 5 8 8 9 11 7 11 8 9 8 9 9 8 5 5 5 3 4 5 4 3 9 20 17 18 18 17 16 15 12 11 11 11 11 10 9 7 6
6 3 6 5 5 6 8 8 9 8 9 7 8 9 7 7 7 6 6 6 7 6 5 6 8 7 8 7 11 15 16 16 15 14 13 10 10 10 9 8 6 5 4
7 7 7 6 7 6 5 8 6 12 9 7 6 4 6 4 6 3 7 7 8 6 5 7 8 8 7 8 9 11 13 13 14 13 12 10 9 8 8 7 4 3 1
8 8 8 6 7 7 7 7 4 6 12 9 3 5 6 5 5 5 5 6 7 6 6 6 7 7 7 6 8 9 11 11 13 12 10 8 7 8 8 6 3 1 3
7 6 6 7 7 6 7 8 7 7 6 4 5 7 9 6 4 5 6 4 6 5 4 5 5 6 4 5 6 7 10 10 11 9 8 8 9 8 7 6 5 4 6
4 5 5 5 6 7 8 7 7 10 7 7 6 7 7 5 8 5 7 4 4 3 3 2 4 3 4 5 7 9 9 10 10 10 9 9 8 8 7 7 8 9 10
3 3 2 3 4 6 7 8 7 7 5 5 6 7 6 7 4 5 6 3 4 1 2 3 2 2 3 3 5 7 9 8 9 8 8 9 8 8 9 9 10 11 11
3 2 0 1 6 4 6 6 6 5 4 5 6 8 8 7 7 5 5 8 4 2 1 3 1 1 1 3 3 7 5 7 9 8 9 8 9 9 9 9 11 11 12
3 5 1 3 5 5 4 6 4 4 4 3 5 7 9 6 6 4 3 3 5 4 1 1 1 2 2 2 2 4 5 8 10 10 9 8 7 8 8 9 11 12 13
2 5 4 5 6 6 7 6 4 5 6 3 4 7 5 4 5 4 4 3 2 4 5 1 0 1 1 2 3 4 4 7 11 10 10 8 8 8 9 11 11 11 12
4 6 6 6 6 8 8 7 6 7 7 6 5 7 6 5 4 4 3 2 3 3 7 3 1 2 3 3 4 4 5 6 7 11 10 10 9 9 9 12 11 9 8
4 6 6 8 6 6 5 8 8 6 9 9 7 8 6 5 5 4 4 4 3 3 7 6 2 2 3 2 3 6 5 5 6 9 11 10 10 9 9 9 9 8 8
5 6 8 8 7 7 9 8 8 8 7 7 6 9 9 9 6 4 3 4 3 3 3 5 4 1 2 2 5 4 4 4 4 11 10 10 9 8 7 8 9 8 6
6 6 6 7 7 8 9 8 8 8 8 7 6 6 6 5 6 6 4 4 4 5 4 4 3 3 2 2 2 4 4 2 3 4 7 6 6 7 8 7 10 8 5
5 5 7 6 5 6 5 7 6 6 7 7 6 6 6 6 7 5 4 5 6 4 4 4 3 2 3 3 4 3 3 2 2 2 4 2 2 3 3 6 8 8 6
5 5 6 6 5 3 6 8 7 6 5 5 5 5 4 6 8 10 9 11 4 6 6 5 3 4 4 3 4 4 4 3 4 4 5 5 3 4 5 4 8 8 8
4 5 5 5 5 5 7 9 8 5 5 4 4 4 4 4 5 5 9 10 9 8 5 6 5 5 5 7 7 5 5 4 4 3 4 5 4 5 5 5 7 6 5
5 4 4 4 3 2 6 7 7 6 5 5 5 5 5 4 3 5 5 5 3 3 2 3 4 5 5 7 8 6 6 4 1 3 4 5 4 5 4 5 7 6 5
4 4 4 5 5 3 6 7 7 4 4 5 4 4 5 5 6 7 5 5 4 2 4 4 2 3 7 8 7 7 6 6 4 5 6 4 5 4 3 4 5 6 6
5 4 4 4 5 5 8 9 6 3 4 4 4 5 7 6 9 8 5 4 3 2 3 2 2 4 4 7 10 4 7 6 3 3 6 6 4 4 3 3 4 4 4
Wind_Direction
203 184 193 182 192 185 208 175 148 162 150 151 147 156 144 140 138 152 146 157 156 159 156 150 146 146 147 140 137 130 133 119 111 106 108 113 110 107 100 94 88 84 79
205 189 189 189 185 191 172 170 154 151 146 152 161 155 140 149 145 146 141 140 161 163 158 154 152 150 145 139 136 131 118 113 115 112 112 112 106 100 96 92 87 80 77
232 206 184 185 181 169 157 157 135 123 130 159 168 150 141 150 142 129 117 137 178 172 156 154 154 149 145 141 140 123 118 119 123 114 112 108 104 101 94 89 86 81 74
234 201 179 194 160 156 151 137 127 124 144 171 157 148 119 120 116 106 116 133 179 162 155 152 150 149 145 144 134 125 122 122 120 121 117 110 101 95 96 92 87 81 80
194 176 161 155 156 141 134 128 135 133 154 132 126 128 117 121 113 109 100 82 98 84 141 148 150 150 148 141 134 130 127 125 122 118 117 103 104 101 99 98 92 88 79
116 131 98 101 110 132 138 133 135 127 140 128 121 116 112 107 102 102 91 72 73 136 125 129 146 158 145 136 128 129 131 129 122 120 113 104 110 112 109 105 97 89 88
80 96 107 111 114 137 136 137 124 140 135 129 116 105 98 104 101 105 85 99 106 150 74 107 86 87 130 123 124 133 132 130 126 111 112 115 122 119 116 109 99 94 87
105 97 114 118 114 131 117 129 134 141 129 139 128 122 117 109 80 80 93 101 97 100 89 95 88 110 123 118 124 132 133 130 119 119 120 124 120 124 126 118 118 104 87
72 63 83 87 79 111 101 118 141 140 129 122 118 158 118 121 116 53 76 74 76 88 94 94 94 91 99 101 122 133 126 120 126 125 130 131 128 134 130 124 114 112 127
68 67 58 68 79 93 95 120 84 120 136 130 97 53 91 116 117 132 52 56 59 64 66 65 74 76 74 102 117 129 129 130 129 132 135 139 134 132 121 125 123 61 25
67 72 74 68 74 81 99 102 94 97 119 100 110 118 102 83 83 123 108 93 60 32 59 82 77 88 94 82 92 105 111 126 114 117 116 130 136 127 113 103 93 75 57
67 52 67 78 88 99 108 96 83 87 88 93 108 116 129 138 141 123 119 83 106 62 53 65 86 108 86 84 113 128 114 102 100 109 134 123 119 118 116 107 92 75 69
55 97 106 71 56 89 99 115 81 84 82 97 110 110 100 108 110 100 103 93 107 81 69 50 79 92 85 106 131 113 118 114 123 130 130 123 123 118 113 98 86 81 80
84 110 127 108 98 108 117 115 104 102 122 137 119 126 122 126 133 131 138 139 98 87 142 101 63 104 117 123 115 132 138 141 134 139 132 133 125 117 102 97 99 104 93
88 106 144 230 118 138 138 118 125 129 131 127 132 133 137 125 141 111 110 121 124 137 113 145 126 30 62 107 144 134 146 160 145 142 135 125 119 117 117 108 113 104 82
41 103 99 110 104 117 127 124 131 143 129 145 132 117 106 106 121 116 124 92 94 131 119 84 91 118 194 124 170 141 141 147 141 134 128 125 121 112 105 112 110 102 87
60 88 99 82 91 116 124 127 121 128 123 111 98 115 108 122 123 107 108 99 95 87 119 111 90 47 71 123 93 90 111 121 131 129 124 116 102 95 102 117 96 89 113
56 75 81 84 76 73 86 111 111 114 119 119 120 115 113 97 113 141 138 129 140 134 130 128 98 73 77 60 92 90 94 108 126 126 118 108 104 102 104 132 104 98 106
71 60 82 84 86 84 81 66 80 78 79 92 119 134 142 142 143 143 142 128 114 112 96 136 130 134 101 59 77 72 90 80 97 110 97 97 97 104 105 110 117 99 94
97 77 63 81 85 87 86 83 88 86 81 75 81 91 103 105 130 132 127 144 130 125 108 117 103 104 98 77 97 147 139 93 123 120 90 109 111 118 121 123 138 126 116
102 109 100 70 72 91 107 107 96 95 95 84 63 64 63 83 103 131 134 150 145 132 135 133 118 125 159 172 186 155 158 151 168 174 159 163 138 139 137 149 156 175 191
96 108 108 117 112 93 110 97 108 106 97 100 104 82 72 72 66 55 72 80 94 148 151 149 159 187 187 187 163 175 143 170 212 188 186 182 186 182 178 181 182 202 217
130 131 129 133 137 141 133 124 125 126 130 119 115 104 80 61 74 90 84 88 80 89 157 155 168 194 181 195 155 176 192 188 201 166 182 192 198 196 198 204 214 221 244
151 144 145 144 142 155 152 148 127 123 117 128 141 143 133 132 128 134 125 112 108 80 94 177 194 196 212 176 183 177 171 160 120 190 206 211 175 212 203 223 225 230 257
154 177 182 170 175 193 175 162 142 134 136 151 156 165 165 165 173 156 134 140 147 152 56 44 338 248 193 171 155 139 165 170 201 211 193 207 186 214 213 225 216 229 264
178 165 173 193 196 198 184 192 168 151 160 184 197 197 195 176 168 174 152 162 179 212 183 172 121 87 125 168 184 205 165 190 178 212 198 199 173 186 220 204 206 218 227